Location: Unspecified
(43.3830°N, 0.0000°E)
Time: 20:47:08
(UTC+00:00)

Explorer 7 - Pass Details

Date: 26 June 2019
Orbit: 485 x 680 km, 50.3° (Epoch: 18 July)

Event Time Altitude Azimuth Distance (km) Brightness Sun altitude
Rises 12:21:06 0° 299° (WNW) 2,897 10.4 69.6°
Reaches altitude 10° 12:23:22 10° 301° (WNW) 2,018 9.8 69.5°
Maximum altitude 12:28:03 77° 28° (NNE) 677 8.4 69.3°
Drops below altitude 10° 12:32:55 10° 114° (ESE) 2,096 9.9 69.0°
Sets 12:35:18 0° 116° (ESE) 3,019 10.6 68.9°
